Regional Weather Roundup
Issued by NWS Portland, ME

Home | Current Version | Previous Version | Text Only | Print | Product List | Glossary On
Versions: 1 2 3 4 5 6 7 8 9 10 11 12 13 14 15 16 17 18 19 20 21 22 23 24 25 26 27 28 29 30 31 32 33 34 35 36 37 38 39 40 41 42 43 44 45 46 47 48 49 50
275
ASUS41 KGYX 141010
RWRGYX
WEATHER ROUNDUP FOR MAINE AND NEW HAMPSHIRE
NATIONAL WEATHER SERVICE GRAY ME
500 AM EST THU DEC 14 2017

MEZ002-005-006-010-012-015-018-020-021-024-026-027-029-141100-
MAINE

CITY           SKY/WX    TMP DP  RH WIND       PRES   REMARKS
PORTLAND       CLOUDY    17   8  67 SW16      29.54R WCI   2
SANFORD        CLOUDY    15   9  76 SW3       29.55S
BAR HARBOR     CLOUDY    18   6  59 W10G20    29.49R WCI   6
WISCASSET      CLOUDY    16   9  74 VRB5      29.54R
ROCKLAND       CLOUDY    17   9  70 W8        29.52R
FRYEBURG       CLOUDY    13   2  61 CALM      29.49S
LEWISTONAUBURN CLOUDY    13   5  70 SW5       29.50S
AUGUSTA        CLOUDY    15   4  61 W8        29.49R
WATERVILLE     CLOUDY    14   2  58 SW10G18   29.44R WCI   1
BANGOR         CLOUDY    14   6  70 SW12G20   29.46R WCI   0
GREENVILLE       N/A      4  -3  73 VRB6      29.28R
MILLINOCKET    CLOUDY     9   0  67 W9        29.38R
HOULTON        CLOUDY     7   1  76 SW8       29.29R
PRESQUE ISLE   PTCLDY     5  -3  69 W9G23     29.27R
FRENCHVILLE    CLOUDY     1  -5  75 SW18G29   29.14R WCI -20
CARIBOU        PTCLDY     4  -5  66 SW17G28   29.22R WCI -16
$$

NHZ002-005-008-009-011-012-014-141100-
NEW HAMPSHIRE

CITY           SKY/WX    TMP DP  RH WIND       PRES   REMARKS
PORTSMOUTH     CLOUDY    20  10  65 SW6       29.55S
ROCHESTER      CLOUDY    18  10  71 VRB3      29.53S
NASHUA         CLOUDY    19  11  70 VRB3      29.57S
MANCHESTER     CLOUDY    20   9  62 VRB3      29.55S
CONCORD        CLOUDY    19   8  62 W7        29.55R
LACONIA        CLOUDY    15   6  67 SW8       29.52R
PLYMOUTH       CLOUDY    11   3  70 NW3       29.52S
BERLIN         CLOUDY    -1  -5  82 CALM      29.43R
WHITEFIELD     CLOUDY     8   1  73 SW3       29.45S
JAFFREY        CLOUDY    16  10  77 SW5       29.51R
KEENE          CLOUDY    17  11  77 S5        29.56R
LEBANON        PTCLDY    10   7  87 CALM      29.52S
MT WASHINGTON  BLWGSNOW  -9  -9 100 W70G78      N/A  VSB 1/16WCI -49
$$

VTZ005-007-008-141100-
VERMONT

CITY           SKY/WX    TMP DP  RH WIND       PRES   REMARKS
ST JOHNSBURY     N/A      2   0  91 MISG      29.49R
MONTPELIER     MOCLDY     0  -2  91 CALM      29.49F
BURLINGTON     CLOUDY    10   3  73 NE3       29.55S
$$

MAZ007-012-024-CTZ003-RIZ002-NYZ038-NYZ072-141100-
SOUTHERN NEW ENGLAND AND NY

CITY           SKY/WX    TMP DP  RH WIND       PRES   REMARKS
BOSTON         CLOUDY    23   8  52 SW14      29.60R WCI  11
WORCESTER      LGT SNOW  16   9  74 SW8       29.52S
NANTUCKET      LGT SNOW  26  23  88 NW7       29.62S FOG
PROVIDENCE     LGT SNOW  22  19  89 CALM      29.61  FOG
HARTFORD       LGT SNOW  20  18  92 SE3       29.59F FOG
ALBANY         LGT SNOW  18  13  80 CALM      29.59S
NEW YORK CITY  CLOUDY    28  24  85 N7        29.54F
$$

ANZ081-ANZ082-ANZ150-NHZ014-MEZ023>029-141100-
COASTAL MARINE OBSERVATIONS

STATION/POSITION TIME  TEMP    WIND        PRES    WAVE
                       AIR SEA DIR/SP/G            HT/PER
                 (UTC) (F)     (DEG/KT/KT) (MB)    (FT/S)
MOUNT DESERT ROC 1000   27     250/ 27/ 33  998.9R
MATINICUS ROCK   0900   26     270/ 27/ 31  998.3R
ISLE OF SHOALS   0900   22     250/ 23/ 32 1000.6F
JEFFREYS LEDGE   0936      48                N/A     5/ 5
GEORGES BANK BUO 0850   43 51              1002.0   17/11
$$

.............KEY..............
   WCI - WIND CHILL
   TC  - TEMPERATURE IN CELSIUS
   VSB - VISIBILITY IN MILES
   HX  - HEAT INDEX
   FAIR- INDICATES FEW OR NO CLOUDS BELOW 12,000 FT, WITH NO
         SIGNIFICANT WEATHER AND/OR OBSTRUCTIONS TO VISIBILITY.






USA.gov is the U.S. government's official web portal to all federal, state and local government web resources and services.